Change the Weather History Date:

Monday, September 23, 2013

  Actual Average Record
Temperature  
Mean Temperature 66 °F -  
Max Temperature 78 °F 66 °F 89 °F (2007)
Min Temperature 55 °F 41 °F 27 °F (1974)
Cooling Degree Days 2    
Growing Degree Days 16 (Base 50)    
Moisture  
Dew Point 48 °F    
Average Humidity 53    
Maximum Humidity 72    
Minimum Humidity 34    
Precipitation  
Precipitation 0.00 in - - ()
Sea Level Pressure  
Sea Level Pressure 29.79 in    
Wind  
Wind Speed 15 mph (SSE)    
Max Wind Speed 24 mph    
Max Gust Speed 32 mph    
Visibility 10 miles    
Events      
Averages and records for this station are not official NWS values.
T = Trace of Precipitation, MM = Missing Value Source: NWS Daily Summary

Daily Weather History Graph

Daily Weather History Graph

Search for Another Location

Airport or City:

Trip Planner

Search our weather history database for the weather conditions in past years. The results will help you decide how hot, cold, wet, or windy it might be!

Date:

Astronomy

Sep. 23, 2013 Rise Set
Actual Time 7:11 AM CDT 7:18 PM CDT
Civil Twilight 6:42 AM CDT 7:47 PM CDT
Nautical Twilight 6:08 AM CDT 8:21 PM CDT
Astronomical Twilight 5:34 AM CDT 8:55 PM CDT
Moon 9:40 PM CDT (9/23) 11:42 AM CDT (9/23)
Length of Visible Light 13h 04m
Length of Day
12h 06m
Waning Gibbous, 81% of the Moon is Illuminated
Sep 23
Waning Gibbous
Sep 26
Last Quarter
Oct 4
New
Oct 11
First Quarter
Oct 18
Full

Hourly Weather History & Observations

Time (CDT) Temp. Dew Point Humidity Pressure Visibility Wind Dir Wind Speed Gust Speed Precip Events Conditions
12:15 AM 64.4 °F 50.0 °F 59% 29.78 in 10.0 mi South 11.5 mph - N/A   Clear
12:35 AM 62.6 °F 50.0 °F 63% 29.78 in 10.0 mi SSE 10.4 mph - N/A   Clear
12:55 AM 62.6 °F 50.0 °F 63% 29.78 in 10.0 mi SSE 11.5 mph - N/A   Clear
1:15 AM 64.4 °F 50.0 °F 59% 29.78 in 10.0 mi South 16.1 mph 20.7 mph N/A   Clear
1:35 AM 64.4 °F 50.0 °F 59% 29.79 in 10.0 mi South 16.1 mph - N/A   Clear
1:55 AM 62.6 °F 50.0 °F 63% 29.79 in 10.0 mi South 16.1 mph - N/A   Clear
2:15 AM 62.6 °F 48.2 °F 59% 29.79 in 10.0 mi South 15.0 mph - N/A   Clear
2:35 AM 62.6 °F 48.2 °F 59% 29.79 in 10.0 mi South 13.8 mph 21.9 mph N/A   Clear
2:55 AM 62.6 °F 48.2 °F 59% 29.78 in 10.0 mi South 15.0 mph 23.0 mph N/A   Clear
3:15 AM 62.6 °F 48.2 °F 59% 29.78 in 10.0 mi South 17.3 mph 23.0 mph N/A   Clear
3:35 AM 62.6 °F 48.2 °F 59% 29.77 in 10.0 mi South 16.1 mph 21.9 mph N/A   Clear
3:55 AM 62.6 °F 48.2 °F 59% 29.77 in 10.0 mi South 15.0 mph - N/A   Clear
4:15 AM 60.8 °F 48.2 °F 63% 29.77 in 10.0 mi South 15.0 mph - N/A   Clear
4:35 AM 60.8 °F 48.2 °F 63% 29.78 in 10.0 mi South 15.0 mph - N/A   Clear
4:55 AM 60.8 °F 48.2 °F 63% 29.78 in 10.0 mi South 11.5 mph - N/A   Clear
5:15 AM 60.8 °F 48.2 °F 63% 29.78 in 10.0 mi South 10.4 mph - N/A   Clear
5:35 AM 59.0 °F 46.4 °F 63% 29.78 in 10.0 mi SSE 12.7 mph - N/A   Clear
5:55 AM 57.2 °F 48.2 °F 72% 29.78 in 10.0 mi SSE 11.5 mph - N/A   Clear
6:15 AM 57.2 °F 46.4 °F 67% 29.78 in 10.0 mi SSE 11.5 mph - N/A   Clear
6:35 AM 55.4 °F 46.4 °F 72% 29.79 in 10.0 mi SSE 12.7 mph - N/A   Clear
6:55 AM 55.4 °F 46.4 °F 72% 29.79 in 10.0 mi SSE 11.5 mph - N/A   Clear
7:15 AM 55.4 °F 46.4 °F 72% 29.80 in 10.0 mi SSE 10.4 mph - N/A   Clear
7:35 AM 55.4 °F 46.4 °F 72% 29.81 in 10.0 mi SSE 12.7 mph - N/A   Clear
7:55 AM 57.2 °F 46.4 °F 67% 29.81 in 10.0 mi SSE 13.8 mph - N/A   Clear
8:15 AM 57.2 °F 46.4 °F 67% 29.81 in 10.0 mi SSE 13.8 mph - N/A   Clear
8:35 AM 57.2 °F 46.4 °F 67% 29.81 in 10.0 mi SSE 13.8 mph - N/A   Clear
8:55 AM 59.0 °F 48.2 °F 67% 29.81 in 10.0 mi SSE 13.8 mph 21.9 mph N/A   Clear
9:15 AM 60.8 °F 46.4 °F 59% 29.81 in 10.0 mi SSE 13.8 mph 20.7 mph N/A   Clear
9:35 AM 62.6 °F 48.2 °F 59% 29.80 in 10.0 mi SE 11.5 mph 19.6 mph N/A   Clear
9:55 AM 64.4 °F 48.2 °F 56% 29.80 in 10.0 mi SSE 16.1 mph - N/A   Clear
10:15 AM 66.2 °F 48.2 °F 52% 29.80 in 10.0 mi South 17.3 mph 25.3 mph N/A   Clear
10:35 AM 66.2 °F 48.2 °F 52% 29.81 in 10.0 mi South 21.9 mph 26.5 mph N/A   Clear
10:55 AM 69.8 °F 48.2 °F 46% 29.80 in 10.0 mi South 20.7 mph 28.8 mph N/A   Clear
11:15 AM 69.8 °F 48.2 °F 46% 29.80 in 10.0 mi South 23.0 mph 26.5 mph N/A   Clear
11:35 AM 71.6 °F 48.2 °F 43% 29.80 in 10.0 mi South 18.4 mph 29.9 mph N/A   Clear
11:55 AM 71.6 °F 48.2 °F 43% 29.79 in 10.0 mi South 24.2 mph 29.9 mph N/A   Clear
12:15 PM 73.4 °F 48.2 °F 41% 29.78 in 10.0 mi South 23.0 mph - N/A   Clear
12:35 PM 73.4 °F 48.2 °F 41% 29.78 in 10.0 mi South 19.6 mph 29.9 mph N/A   Clear
12:55 PM 73.4 °F 50.0 °F 44% 29.78 in 10.0 mi South 21.9 mph 27.6 mph N/A   Clear
1:15 PM 75.2 °F 50.0 °F 41% 29.77 in 10.0 mi South 21.9 mph 29.9 mph N/A   Clear
1:35 PM 75.2 °F 50.0 °F 41% 29.77 in 10.0 mi South 23.0 mph 29.9 mph N/A   Clear
1:55 PM 75.2 °F 50.0 °F 41% 29.76 in 10.0 mi SSE 24.2 mph 32.2 mph N/A   Clear
2:15 PM 75.2 °F 50.0 °F 41% 29.75 in 10.0 mi South 19.6 mph 27.6 mph N/A   Clear
2:35 PM 75.2 °F 50.0 °F 41% 29.75 in 10.0 mi SSE 23.0 mph 28.8 mph N/A   Clear
2:55 PM 75.2 °F 48.2 °F 38% 29.75 in 10.0 mi South 23.0 mph 32.2 mph N/A   Clear
3:15 PM 77.0 °F 48.2 °F 36% 29.75 in 10.0 mi SSE 20.7 mph 26.5 mph N/A   Clear
3:35 PM 77.0 °F 48.2 °F 36% 29.75 in 10.0 mi SSE 23.0 mph 27.6 mph N/A   Clear
3:55 PM 78.8 °F 48.2 °F 34% 29.76 in 10.0 mi South 23.0 mph 28.8 mph N/A   Clear
4:15 PM 78.8 °F 48.2 °F 34% 29.76 in 10.0 mi South 20.7 mph 27.6 mph N/A   Clear
4:35 PM 78.8 °F 48.2 °F 34% 29.76 in 10.0 mi South 20.7 mph 29.9 mph N/A   Clear
4:55 PM 78.8 °F 48.2 °F 34% 29.76 in 10.0 mi SSE 20.7 mph 26.5 mph N/A   Clear
5:15 PM 78.8 °F 48.2 °F 34% 29.76 in 10.0 mi SSE 23.0 mph 27.6 mph N/A   Clear
5:35 PM 78.8 °F 48.2 °F 34% 29.76 in 10.0 mi South 20.7 mph 25.3 mph N/A   Clear
5:55 PM 77.0 °F 48.2 °F 36% 29.77 in 10.0 mi South 17.3 mph 28.8 mph N/A   Clear
6:15 PM 77.0 °F 48.2 °F 36% 29.77 in 10.0 mi SSE 16.1 mph 21.9 mph N/A   Clear
6:35 PM 75.2 °F 48.2 °F 38% 29.78 in 10.0 mi SSE 15.0 mph 24.2 mph N/A   Clear
6:55 PM 73.4 °F 48.2 °F 41% 29.78 in 10.0 mi SSE 11.5 mph - N/A   Clear
7:15 PM 71.6 °F 48.2 °F 43% 29.78 in 10.0 mi SE 13.8 mph - N/A   Clear
7:35 PM 69.8 °F 48.2 °F 46% 29.78 in 10.0 mi SSE 15.0 mph - N/A   Clear
7:55 PM 69.8 °F 48.2 °F 46% 29.80 in 10.0 mi SSE 13.8 mph - N/A   Clear
8:15 PM 68.0 °F 48.2 °F 49% 29.80 in 10.0 mi SE 11.5 mph - N/A   Clear
8:35 PM 66.2 °F 48.2 °F 52% 29.81 in 10.0 mi SSE 10.4 mph - N/A   Clear
8:55 PM 64.4 °F 48.2 °F 56% 29.82 in 10.0 mi SSE 10.4 mph - N/A   Clear
9:15 PM 64.4 °F 48.2 °F 56% 29.81 in 10.0 mi SE 10.4 mph - N/A   Clear
9:35 PM 62.6 °F 48.2 °F 59% 29.81 in 10.0 mi SE 10.4 mph - N/A   Clear
9:55 PM 62.6 °F 46.4 °F 55% 29.82 in 10.0 mi SE 10.4 mph - N/A   Clear
10:15 PM 60.8 °F 46.4 °F 59% 29.83 in 10.0 mi SSE 10.4 mph - N/A   Clear
10:35 PM 59.0 °F 46.4 °F 63% 29.84 in 10.0 mi SSE 8.1 mph - N/A   Clear
10:55 PM 60.8 °F 46.4 °F 59% 29.84 in 10.0 mi SSE 8.1 mph - N/A   Clear
11:15 PM 62.6 °F 46.4 °F 55% 29.85 in 10.0 mi SSE 10.4 mph - N/A   Clear
11:35 PM 62.6 °F 48.2 °F 59% 29.85 in 10.0 mi SSE 9.2 mph - N/A   Clear
11:55 PM 60.8 °F 48.2 °F 63% 29.85 in 10.0 mi SSE 8.1 mph - N/A   Clear